Tracking 29089 objects as of 12-Jul-2024
HD Live streaming from Space Station
objects crossing your sky now

STARLINK-5488

Track STARLINK-5488 now!
10-day predictions
STARLINK-5488 is classified as:


NORAD ID: 57250
Int'l Code: 2023-094AJ
Perigee: 565.3 km
Apogee: 567.1 km
Inclination: 43.0 °
Period: 95.8 minutes
Semi major axis: 6937 km
RCS: Unknown
Launch date: July 7, 2023
Source: United States (US)
Launch site: AIR FORCE WESTERN TEST RANGE (AFWTR)
Your satellite tracking list
Your tracking list is empty




NASA's NSSDC Master Catalog

Two Line Element Set (TLE):
1 57250U 23094AJ  24194.37576944  .00001969  00000-0  16078-3 0  9992
2 57250  43.0053  66.5499 0001336 261.8727  98.1964 15.02534735 56217
Source of the keplerian elements: AFSPC